Weather History for KFOE - September, 2012

Change the Weather History Date:

Saturday, September 1, 2012

  Actual Average Record
Temperature  
Mean Temperature 78 °F -  
Max Temperature 90 °F 85 °F 106 °F (2011)
Min Temperature 68 °F 62 °F 44 °F (1949)
Cooling Degree Days 14    
Growing Degree Days 28 (Base 50)    
Moisture  
Dew Point 68 °F    
Average Humidity 74    
Maximum Humidity 90    
Minimum Humidity 48    
Precipitation  
Precipitation 0.02 in - - ()
Sea Level Pressure  
Sea Level Pressure 29.90 in    
Wind  
Wind Speed 13 mph (North)    
Max Wind Speed 22 mph    
Max Gust Speed 29 mph    
Visibility 10 miles    
Events Rain    
Averages and records for this station are not official NWS values.
T = Trace of Precipitation, MM = Missing Value Source: NWS Daily Summary

Daily Weather History Graph

Daily Weather History Graph

Search for Another Location

Airport or City:

Trip Planner

Search our weather history database for the weather conditions in past years. The results will help you decide how hot, cold, wet, or windy it might be!

Date:

Astronomy

Sep. 01, 2012 Rise Set
Actual Time 6:51 AM CDT 7:52 PM CDT
Civil Twilight 6:24 AM CDT 8:19 PM CDT
Nautical Twilight 5:52 AM CDT 8:51 PM CDT
Astronomical Twilight 5:18 AM CDT 9:25 PM CDT
Moon 8:10 PM CDT (9/1) 7:59 AM CDT (9/1)
Length of Visible Light 13h 54m
Length of Day
13h 00m
Full, 99% of the Moon is Illuminated
Sep 1
Full
Sep 8
Last Quarter
Sep 15
New
Sep 22
First Quarter
Sep 29
Full

Hourly Weather History & Observations

Time (CDT) Temp. Heat Index Dew Point Humidity Pressure Visibility Wind Dir Wind Speed Gust Speed Precip Events Conditions
12:07 AM 69.8 °F - 66.2 °F 88% 29.89 in 10.0 mi North 10.4 mph 17.3 mph 0.00 in Rain Light Rain
12:53 AM 71.1 °F - 68.0 °F 90% 29.85 in 10.0 mi North 11.5 mph - 0.01 in Rain Light Rain
1:17 AM 71.6 °F - 68.0 °F 88% 29.88 in 10.0 mi North 13.8 mph 20.7 mph 0.00 in Rain Light Rain
1:53 AM 72.0 °F - 68.0 °F 87% 29.85 in 10.0 mi North 13.8 mph 24.2 mph 0.00 in   Overcast
2:53 AM 72.0 °F - 68.0 °F 87% 29.85 in 10.0 mi North 15.0 mph 23.0 mph 0.00 in   Overcast
3:53 AM 72.0 °F - 68.0 °F 87% 29.86 in 10.0 mi NNW 12.7 mph - 0.01 in   Overcast
4:53 AM 72.0 °F - 68.0 °F 87% 29.86 in 10.0 mi North 12.7 mph 23.0 mph 0.00 in   Overcast
5:53 AM 72.0 °F - 68.0 °F 87% 29.87 in 10.0 mi NNW 15.0 mph - 0.00 in   Overcast
6:53 AM 73.0 °F - 68.0 °F 84% 29.89 in 10.0 mi North 12.7 mph - N/A   Overcast
7:28 AM 73.4 °F - 68.0 °F 83% 29.92 in 10.0 mi NNW 13.8 mph 21.9 mph N/A   Scattered Clouds
7:53 AM 73.0 °F - 68.0 °F 84% 29.90 in 10.0 mi NNW 17.3 mph - N/A   Clear
8:53 AM 73.9 °F - 68.0 °F 82% 29.92 in 10.0 mi North 12.7 mph 23.0 mph N/A   Clear
9:53 AM 75.9 °F - 69.1 °F 79% 29.92 in 10.0 mi NNW 13.8 mph - N/A   Clear
10:53 AM 78.1 °F - 68.0 °F 71% 29.93 in 10.0 mi NNW 16.1 mph - N/A   Clear
11:53 AM 80.1 °F 82.7 °F 68.0 °F 67% 29.94 in 10.0 mi North 13.8 mph 21.9 mph N/A   Clear
12:53 PM 84.0 °F 86.5 °F 66.9 °F 56% 29.93 in 10.0 mi NNW 17.3 mph 21.9 mph N/A   Clear
1:53 PM 87.1 °F 90.6 °F 68.0 °F 53% 29.91 in 10.0 mi NNW 21.9 mph 27.6 mph N/A   Clear
2:53 PM 86.0 °F 89.4 °F 68.0 °F 55% 29.89 in 10.0 mi North 19.6 mph 28.8 mph N/A   Scattered Clouds
3:53 PM 88.0 °F 91.4 °F 68.0 °F 51% 29.88 in 10.0 mi North 17.3 mph 27.6 mph N/A   Clear
4:53 PM 88.0 °F 90.7 °F 66.9 °F 49% 29.88 in 10.0 mi North 16.1 mph 27.6 mph N/A   Partly Cloudy
5:53 PM 88.0 °F 90.3 °F 66.0 °F 48% 29.88 in 10.0 mi North 13.8 mph 23.0 mph N/A   Partly Cloudy
6:53 PM 86.0 °F 88.8 °F 66.9 °F 53% 29.89 in 10.0 mi North 12.7 mph 19.6 mph N/A   Clear
7:53 PM 82.0 °F 84.9 °F 68.0 °F 62% 29.90 in 10.0 mi NNE 5.8 mph - N/A   Clear
8:53 PM 79.0 °F - 68.0 °F 69% 29.92 in 10.0 mi NE 3.5 mph - N/A   Clear
9:53 PM 75.9 °F - 66.9 °F 74% 29.94 in 10.0 mi ENE 4.6 mph - N/A   Clear
10:53 PM 72.0 °F - 66.0 °F 81% 29.95 in 10.0 mi Calm Calm - N/A   Clear
11:53 PM 68.0 °F - 64.9 °F 90% 29.95 in 10.0 mi Calm Calm - N/A   Clear